Flag for Norway Weather past 2 weeks in Hamar, Norway

Now
51 °F

Cool.


Feels Like: 49 °F
Forecast: 43 / 57 °F
Wind: 6 mph from South

Location: Haugedalshogda

Current Time: Oct 1, 2014 at 5:15:51 PM

Latest Report: Oct 1, 2014 at 4:00 PM


Visibility: N/A

Pressure: 30.30 "Hg

Humidity: 66%

Dew point: 40 °F

Location of HamarLocation

Historic Weather in Hamar — Graph

°F

Hamar temperature yesterday

Maximum temperature yesterday: 55 °F (at 3:00 PM)
Minimum temperature yesterday: 21 °F (at 6:00 AM)
Average temperature yesterday: 37 °F

Past Weeks' High & Low Weather Summary

 TemperatureHumidityPressure
High66 °F (Sep 16, 4:00 PM)96% (Sep 19, 9:00 AM)30.42 "Hg (Sep 19, 9:00 AM)
Low21 °F (Sep 30, 6:00 AM)31% (Sep 27, 2:00 PM)29.38 "Hg (Sep 26, 2:00 PM)
Average45 °F77%30.00 "Hg
* Reported Sep 16 4:00 PM — Oct 1 4:00 PM, Hamar, Weather by CustomWeather, © 2014

Note: Actual official high and low records may vary slightly from our data, if they occured in-between our weather recording intervals... More about our weather records

Advertising

Hamar weather history for previous 24 hours

 ConditionsComfort  
Time TempWeatherWind HumidityBarometerVisibility
4:00 PM
Oct 1
51 °FCool.6 mph66%30.30 "HgN/A
3:00 PM50 °FCool.3 mph73%30.32 "HgN/A
2:00 PM48 °FCool.3 mph76%30.34 "HgN/A
1:00 PM47 °FCool.3 mph79%30.35 "HgN/A
12:00 PM47 °FCool.3 mph75%30.35 "HgN/A
11:00 AM46 °FCool.1 mph76%30.36 "HgN/A
10:00 AM44 °FQuite cool.2 mph87%30.37 "HgN/A
9:00 AM40 °FQuite cool.1 mph94%30.38 "HgN/A
8:00 AM34 °FChilly.1 mph95%30.39 "HgN/A
7:00 AM31 °FChilly.1 mph94%30.40 "HgN/A
6:00 AM32 °FChilly.No wind94%30.41 "HgN/A
5:00 AM34 °FChilly.1 mph90%30.40 "HgN/A
4:00 AM41 °FQuite cool.No wind86%30.39 "HgN/A
3:00 AM43 °FQuite cool.1 mph87%30.39 "HgN/A
2:00 AM44 °FQuite cool.2 mph84%30.39 "HgN/A
1:00 AM45 °FQuite cool.1 mph84%30.39 "HgN/A
12:00 AM43 °FQuite cool.1 mph90%30.39 "HgN/A
11:00 PM
Sep 30
41 °FQuite cool.1 mph90%30.39 "HgN/A
10:00 PM41 °FQuite cool.2 mph88%30.38 "HgN/A
9:00 PM42 °FQuite cool.1 mph88%30.38 "HgN/A
8:00 PM43 °FQuite cool.No wind85%30.37 "HgN/A
7:00 PM46 °FCool.1 mph79%30.36 "HgN/A
6:00 PM49 °FCool.1 mph68%30.34 "HgN/A
5:00 PM52 °FCool.3 mph59%30.34 "HgN/A
Weather by CustomWeather, © 2014

See weather overviewHow to use our weather pages